User: anonymous   Login
Location: Trois-Rivi�res
(46.3500°N, 72.5500°W)
Time: 18:08:32
(UTC-04:00)
Language:

SJ-11-01 - Orbit

View from above orbital plane
View from above orbital plane
View from above satellite
View from above satellite

Ground track
Ground track

The orbit data is extracted from the following two-line orbital elements,

1 36088U 09061A   15142.48057232  .00000677  00000-0  15191-3 0  9995
2 36088 098.2400 188.5634 0012971 103.9210 256.3431 14.59626022294243
Epoch (UTC): 22 May 2015 11:32:01
Eccentricity: 0.0012971
inclination: 98.2400°
perigee height: 685 km
apogee height: 703 km
right ascension of ascending node: 188.5634°
argument of perigee: 103.9210°
revolutions per day: 14.59626022
mean anomaly at epoch: 256.3431°
orbit number at epoch: 29424

The dashed part of the orbit path shows where the satellite is in the earth's shadow,  

DLR